Torna al catalogo

STARLINK-37925

AttivoComunicazioniVLEO
NORAD 69962·PAYLOAD·🇺🇸 United States

Lanciato Jul 9, 2026 da Cape Canaveral Space Force Station

Loading…

Prossimi Passaggi (prossime 24 ore)

TLE

AggiornatoSource: CelesTrak SupGP

Epoca: Sep 15, 2026, 03:01 UTC

1 69962C 26157V   26258.12618056  .00069554  00000+0  20547-2 0  2581
2 69962  53.1584 358.9483 0001074  94.8390 359.4187 15.34360533    16

Traccia STARLINK-37925 in tempo reale con AllMySat

Download on the App Store